Ketchikan, AK

3:42 PM AKST on December 09, 2018 (GMT -0900)
Ketchikan International

Weather History for PAKT - October, 2018

Change the Weather History Date:

Tuesday, October 23, 2018

  Actual Average Record
Temperature  
Mean Temperature 54 °F -  
Max Temperature 59 °F 51 °F 60 °F (1965)
Min Temperature 50 °F 40 °F 30 °F (2004)
Degree Days  
Heating Degree Days 10    
Growing Degree Days 4 (Base 50)    
Moisture  
Dew Point 46 °F    
Average Humidity 78    
Maximum Humidity 94    
Minimum Humidity 46    
Precipitation  
Precipitation 0.19 in - - ()
Sea Level Pressure  
Sea Level Pressure 29.66 in    
Wind  
Wind Speed 11 mph (SSE)    
Max Wind Speed 20 mph    
Max Gust Speed 31 mph    
Visibility 8 miles    
Events Rain    
Averages and records for this station are not official NWS values.
T = Trace of Precipitation, MM = Missing Value Source: NWS Daily Summary

Daily Weather History Graph

Daily Weather History Graph

Search for Another Location

Airport or City:

Astronomy

Oct. 23, 2018 Rise Set
Actual Time 7:33 AM AKDT 5:27 PM AKDT
Civil Twilight 6:55 AM AKDT 6:05 PM AKDT
Nautical Twilight 6:13 AM AKDT 6:48 PM AKDT
Astronomical Twilight 5:30 AM AKDT 7:30 PM AKDT
Moon 5:45 PM AKDT (10/23) 5:58 AM AKDT (10/23)
Length of Visible Light 11h 09m
Length of Day
9h 54m
Waxing Gibbous, 99% of the Moon is Illuminated
Oct 23
Waxing Gibbous
Oct 24
Full
Oct 31
Last Quarter
Nov 7
New
Nov 15
First Quarter

Hourly Weather History & Observations

Time (AKDT) Temp. Dew Point Humidity Pressure Visibility Wind Dir Wind Speed Gust Speed Precip Events Conditions
12:53 AM 55.0 °F 45.0 °F 69% 29.61 in 10.0 mi SSE 8.1 mph - N/A   Overcast
1:53 AM 55.0 °F 44.1 °F 67% 29.59 in 10.0 mi South 10.4 mph 17.3 mph N/A   Mostly Cloudy
2:53 AM 55.0 °F 44.1 °F 67% 29.57 in 10.0 mi South 11.5 mph 19.6 mph N/A   Overcast
3:53 AM 55.9 °F 43.0 °F 62% 29.57 in 10.0 mi SSE 11.5 mph 20.7 mph N/A   Overcast
4:53 AM 59.0 °F 37.9 °F 46% 29.55 in 10.0 mi SSE 17.3 mph 25.3 mph N/A   Overcast
5:53 AM 57.9 °F 39.0 °F 49% 29.56 in 10.0 mi SE 19.6 mph 29.9 mph N/A   Overcast
6:10 AM 57.9 °F 39.0 °F 49% 29.55 in 10.0 mi SE 16.1 mph 31.1 mph 0.00 in Rain Light Rain
6:12 AM 57.2 °F 39.2 °F 51% 29.55 in 10.0 mi SE 17.3 mph 31.1 mph N/A Rain Light Rain
6:53 AM 57.2 °F 39.2 °F 51% 29.56 in 10.0 mi SSE 17.3 mph 25.3 mph N/A   Overcast
7:53 AM 53.6 °F 44.6 °F 72% 29.59 in 10.0 mi SSE 12.7 mph 20.7 mph N/A Rain Light Rain
8:53 AM 51.8 °F 46.4 °F 82% 29.59 in 8.0 mi SSE 11.5 mph - N/A Rain Light Rain
9:53 AM 51.8 °F 46.4 °F 82% 29.62 in 4.0 mi SSE 12.7 mph - N/A Rain Light Rain
10:53 AM 52.0 °F 46.9 °F 83% 29.64 in 4.0 mi SSE 11.5 mph 20.7 mph 0.08 in Rain Rain
11:53 AM 51.8 °F 48.2 °F 88% 29.66 in 4.0 mi SSE 10.4 mph - N/A Rain Rain
12:53 PM 51.8 °F 48.2 °F 88% 29.70 in 4.0 mi SE 9.2 mph - N/A Rain Heavy Rain
1:53 PM 51.8 °F 48.2 °F 88% 29.71 in 5.0 mi SSE 4.6 mph - N/A Rain Light Rain
2:53 PM 51.8 °F 48.2 °F 88% 29.71 in 10.0 mi SSE 8.1 mph - N/A Rain Light Rain
3:53 PM 51.8 °F 48.2 °F 88% 29.70 in 10.0 mi SSE 8.1 mph - N/A Rain Light Rain
4:53 PM 51.8 °F 48.2 °F 88% 29.71 in 10.0 mi SSE 11.5 mph - N/A Rain Light Rain
5:53 PM 50.0 °F 48.2 °F 94% 29.72 in 6.0 mi South 8.1 mph - N/A Rain Light Rain
6:53 PM 50.0 °F 48.2 °F 94% 29.73 in 4.0 mi SSE 6.9 mph - N/A Rain Rain
7:53 PM 51.8 °F 48.2 °F 88% 29.73 in 10.0 mi South 5.8 mph - N/A   Overcast
8:53 PM 50.0 °F 46.4 °F 87% 29.74 in 8.0 mi SSE 8.1 mph - N/A Rain Light Rain
9:53 PM 50.0 °F 48.0 °F 93% 29.75 in 3.0 mi South 5.8 mph - 0.05 in Rain Light Rain
10:00 PM 50.0 °F 48.0 °F 93% 29.75 in 4.0 mi South 5.8 mph - 0.00 in Rain Light Rain
10:53 PM 50.0 °F 48.0 °F 93% 29.77 in 7.0 mi SSE 10.4 mph - 0.05 in Rain Light Rain
11:16 PM 50.0 °F 48.0 °F 93% 29.77 in 10.0 mi SSE 9.2 mph - 0.00 in Rain Light Rain
11:53 PM 50.0 °F 48.0 °F 93% 29.77 in 7.0 mi South 4.6 mph - 0.01 in Rain Rain